When you browse on this site, cookies collect data to enhance your experience and personalize the content and advertising you see.
Visit our Privacy Policy to learn more. By continuing to use the site, you agree to this use of cookies and data.
  • En España
  • Lista de países
  • Para 7 días
  • Temperatura del agua
  • El tiempo en el mapa
  • Informadores
  • user-avatar
    Iniciar sesión

    Tiempo cada hora Masvingo

    Hoy, 15 Diciembre, Domingo

    Tiempo Temperatura Precipitaciones Viento Presión Humedad
    00:00 +22°C° 0 mm 1 mps 671 mmHg 74%
    01:00 +22°C° 0 mm 1 mps 671 mmHg 74%
    02:00 +21°C° 0 mm 1 mps 671 mmHg 76%
    03:00 +21°C° 0 mm 1 mps 671 mmHg 77%
    04:00 +21°C° 0 mm 1 mps 671 mmHg 78%
    05:00 +20°C° 0 mm 1 mps 671 mmHg 79%
    06:00 +23°C° 0 mm 2 mps 671 mmHg 72%
    07:00 +25°C° 0 mm 2 mps 672 mmHg 65%
    08:00 +27°C° 0 mm 2 mps 673 mmHg 57%
    09:00 +29°C° 0 mm 1 mps 673 mmHg 48%
    10:00 +32°C° 0 mm 1 mps 673 mmHg 39%
    11:00 +33°C° 0 mm 0 mps 673 mmHg 31%
    12:00 +35°C° 0 mm 1 mps 673 mmHg 28%
    13:00 +36°C° 0 mm 2 mps 672 mmHg 25%
    14:00 +36°C° 0 mm 2 mps 671 mmHg 22%
    15:00 +36°C° 0 mm 2 mps 671 mmHg 24%
    16:00 +35°C° 0 mm 2 mps 670 mmHg 25%
    17:00 +34°C° 0 mm 3 mps 670 mmHg 27%
    18:00 +31°C° 0 mm 2 mps 670 mmHg 30%
    19:00 +29°C° 0 mm 2 mps 670 mmHg 33%
    20:00 +27°C° 0 mm 2 mps 670 mmHg 37%
    21:00 +27°C° 0 mm 2 mps 670 mmHg 37%
    22:00 +26°C° 0 mm 1 mps 670 mmHg 37%
    23:00 +26°C° 0 mm 1 mps 670 mmHg 37%

    Mañana, 16 Diciembre, Lunes

    Tiempo Temperatura Precipitaciones Viento Presión Humedad
    00:00 +26°C° 0 mm 1 mps 670 mmHg 37%
    01:00 +25°C° 0 mm 2 mps 669 mmHg 38%
    02:00 +25°C° 0 mm 2 mps 669 mmHg 38%
    03:00 +24°C° 0 mm 3 mps 669 mmHg 43%
    04:00 +23°C° 0 mm 4 mps 670 mmHg 48%
    05:00 +22°C° 0 mm 5 mps 670 mmHg 53%
    06:00 +22°C° 0 mm 5 mps 671 mmHg 64%
    07:00 +22°C° 0 mm 6 mps 672 mmHg 75%
    08:00 +22°C° 0 mm 6 mps 673 mmHg 86%
    09:00 +22°C° 0.1 mm 6 mps 673 mmHg 84%
    10:00 +22°C° 0.1 mm 5 mps 673 mmHg 82%
    11:00 +22°C° 0.1 mm 5 mps 673 mmHg 81%
    12:00 +22°C° 0 mm 5 mps 673 mmHg 80%
    13:00 +21°C° 0 mm 5 mps 672 mmHg 80%
    14:00 +21°C° 0 mm 5 mps 672 mmHg 79%
    15:00 +21°C° 0 mm 5 mps 672 mmHg 79%
    16:00 +21°C° 0 mm 5 mps 672 mmHg 79%
    17:00 +20°C° 0 mm 5 mps 672 mmHg 80%
    18:00 +20°C° 0 mm 4 mps 672 mmHg 82%
    19:00 +19°C° 0 mm 4 mps 672 mmHg 84%
    20:00 +18°C° 0 mm 4 mps 672 mmHg 86%
    21:00 +18°C° 0 mm 4 mps 672 mmHg 85%
    22:00 +18°C° 0 mm 4 mps 672 mmHg 85%
    23:00 +18°C° 0 mm 3 mps 673 mmHg 84%

    Pasado mañana, 17 Diciembre, Martes

    Tiempo Temperatura Precipitaciones Viento Presión Humedad
    00:00 +18°C° 0 mm 3 mps 672 mmHg 84%
    01:00 +17°C° 0 mm 3 mps 672 mmHg 84%
    02:00 +17°C° 0 mm 3 mps 671 mmHg 83%
    03:00 +17°C° 0 mm 3 mps 672 mmHg 85%
    04:00 +16°C° 0 mm 3 mps 672 mmHg 87%
    05:00 +16°C° 0 mm 2 mps 672 mmHg 89%
    06:00 +17°C° 0 mm 2 mps 672 mmHg 86%
    07:00 +18°C° 0 mm 2 mps 673 mmHg 82%
    08:00 +19°C° 0 mm 2 mps 673 mmHg 78%
    09:00 +21°C° 0 mm 3 mps 673 mmHg 72%
    10:00 +22°C° 0 mm 3 mps 673 mmHg 66%
    11:00 +25°C° 0 mm 3 mps 673 mmHg 59%
    12:00 +26°C° 0 mm 3 mps 673 mmHg 54%
    13:00 +28°C° 0 mm 3 mps 672 mmHg 49%
    14:00 +29°C° 0 mm 3 mps 672 mmHg 44%
    15:00 +29°C° 0 mm 4 mps 671 mmHg 45%
    16:00 +28°C° 0 mm 4 mps 671 mmHg 46%
    17:00 +28°C° 0 mm 4 mps 670 mmHg 47%
    18:00 +26°C° 0 mm 3 mps 670 mmHg 54%
    19:00 +24°C° 0 mm 3 mps 670 mmHg 61%
    20:00 +21°C° 0 mm 2 mps 670 mmHg 68%
    21:00 +20°C° 0 mm 2 mps 670 mmHg 70%
    22:00 +20°C° 0 mm 2 mps 670 mmHg 72%
    23:00 +19°C° 0 mm 2 mps 670 mmHg 74%

    18 Diciembre, Miércoles

    Tiempo Temperatura Precipitaciones Viento Presión Humedad
    00:00 +19°C° 0 mm 1 mps 670 mmHg 75%
    01:00 +19°C° 0 mm 1 mps 670 mmHg 77%
    02:00 +19°C° 0 mm 1 mps 669 mmHg 78%
    03:00 +18°C° 0 mm 1 mps 669 mmHg 78%
    04:00 +18°C° 0 mm 1 mps 669 mmHg 79%
    05:00 +18°C° 0 mm 1 mps 669 mmHg 79%
    06:00 +20°C° 0 mm 1 mps 670 mmHg 70%
    07:00 +22°C° 0 mm 1 mps 671 mmHg 61%
    08:00 +25°C° 0 mm 1 mps 671 mmHg 52%
    09:00 +27°C° 0 mm 1 mps 672 mmHg 44%
    10:00 +30°C° 0 mm 1 mps 672 mmHg 36%
    11:00 +33°C° 0 mm 1 mps 672 mmHg 28%
    12:00 +33°C° 0 mm 1 mps 672 mmHg 25%
    13:00 +35°C° 0 mm 2 mps 671 mmHg 23%
    14:00 +35°C° 0 mm 2 mps 670 mmHg 20%
    15:00 +34°C° 0 mm 2 mps 670 mmHg 22%
    16:00 +34°C° 0 mm 3 mps 669 mmHg 23%
    17:00 +33°C° 0 mm 3 mps 669 mmHg 25%
    18:00 +30°C° 0 mm 3 mps 669 mmHg 28%
    19:00 +28°C° 0 mm 2 mps 668 mmHg 32%
    20:00 +25°C° 0 mm 2 mps 668 mmHg 36%
    21:00 +25°C° 0 mm 2 mps 668 mmHg 36%
    22:00 +24°C° 0 mm 2 mps 669 mmHg 37%
    23:00 +24°C° 0 mm 2 mps 669 mmHg 37%

    19 Diciembre, Jueves

    Tiempo Temperatura Precipitaciones Viento Presión Humedad
    00:00 +23°C° 0 mm 2 mps 668 mmHg 39%
    01:00 +23°C° 0 mm 2 mps 668 mmHg 40%
    02:00 +21°C° 0 mm 2 mps 668 mmHg 42%
    03:00 +21°C° 0 mm 2 mps 668 mmHg 43%
    04:00 +21°C° 0 mm 2 mps 668 mmHg 44%
    05:00 +21°C° 0 mm 2 mps 668 mmHg 45%
    06:00 +24°C° 0 mm 2 mps 669 mmHg 42%
    07:00 +26°C° 0 mm 3 mps 670 mmHg 40%
    08:00 +28°C° 0 mm 3 mps 670 mmHg 38%
    09:00 +31°C° 0 mm 2 mps 671 mmHg 33%
    10:00 +34°C° 0 mm 1 mps 671 mmHg 29%
    11:00 +37°C° 0 mm 1 mps 671 mmHg 24%
    12:00 +37°C° 0 mm 2 mps 671 mmHg 24%
    13:00 +37°C° 0 mm 3 mps 670 mmHg 24%
    14:00 +37°C° 0 mm 4 mps 669 mmHg 24%
    15:00 +36°C° 0 mm 4 mps 669 mmHg 26%
    16:00 +36°C° 0 mm 4 mps 668 mmHg 27%
    17:00 +35°C° 0 mm 4 mps 668 mmHg 29%
    18:00 +33°C° 0 mm 3 mps 668 mmHg 33%
    19:00 +30°C° 0 mm 3 mps 668 mmHg 37%
    20:00 +28°C° 0 mm 2 mps 668 mmHg 40%
    21:00 +28°C° 0 mm 2 mps 669 mmHg 40%
    22:00 +27°C° 0 mm 3 mps 669 mmHg 40%
    23:00 +26°C° 0 mm 3 mps 669 mmHg 41%

    20 Diciembre, Viernes

    Tiempo Temperatura Precipitaciones Viento Presión Humedad
    00:00 +26°C° 0 mm 3 mps 669 mmHg 41%
    01:00 +25°C° 0 mm 3 mps 668 mmHg 42%
    02:00 +24°C° 0 mm 2 mps 668 mmHg 43%
    03:00 +24°C° 0 mm 2 mps 668 mmHg 44%
    04:00 +24°C° 0 mm 2 mps 669 mmHg 46%
    05:00 +23°C° 0 mm 1 mps 669 mmHg 48%
    06:00 +25°C° 0 mm 1 mps 670 mmHg 43%
    07:00 +28°C° 0 mm 1 mps 671 mmHg 38%
    08:00 +30°C° 0 mm 1 mps 672 mmHg 34%
    09:00 +32°C° 0 mm 2 mps 672 mmHg 31%
    10:00 +34°C° 0 mm 3 mps 672 mmHg 28%
    11:00 +36°C° 0 mm 3 mps 672 mmHg 25%
    12:00 +36°C° 0 mm 4 mps 671 mmHg 25%
    13:00 +36°C° 0 mm 5 mps 671 mmHg 25%
    14:00 +36°C° 0 mm 5 mps 670 mmHg 24%
    15:00 +36°C° 0 mm 5 mps 670 mmHg 26%
    16:00 +35°C° 0 mm 5 mps 670 mmHg 27%
    17:00 +34°C° 0 mm 5 mps 670 mmHg 29%
    18:00 +32°C° 0 mm 5 mps 670 mmHg 32%
    19:00 +29°C° 0 mm 4 mps 670 mmHg 36%
    20:00 +27°C° 0 mm 3 mps 670 mmHg 40%
    21:00 +26°C° 0 mm 3 mps 670 mmHg 41%
    22:00 +25°C° 0 mm 2 mps 670 mmHg 42%
    23:00 +24°C° 0 mm 2 mps 670 mmHg 43%
    Mostrar más